This is the latest recevied weather packets stored in our database for station/object VE3EP-1. If no packets are shown the sender has not sent any weather packets the latest 10 day(s).
| Time | Temp. | Humidity | Pressure | Rain* | Wind** | Luminosity | Snow |
|---|---|---|---|---|---|---|---|
| 1778150530 | 5° C | 77% | 1014.8 hPa | 0 mm | - | - | - |
| 1778149928 | 5° C | 77% | 1014.8 hPa | 0 mm | - | - | - |
| 1778148729 | 4.44° C | 78% | 1014.5 hPa | 0 mm | - | - | - |
| 1778148129 | 4.44° C | 79% | 1014.8 hPa | 0 mm | - | - | - |
| 1778147528 | 4.44° C | 78% | 1014.4 hPa | 0 mm | - | - | - |
| 1778146928 | 5° C | 77% | 1014.4 hPa | 0 mm | - | - | - |
| 1778146328 | 5° C | 75% | 1014.2 hPa | 0 mm | - | - | - |
| 1778145129 | 5° C | 68% | 1014.3 hPa | 0 mm | - | - | - |
| 1778144529 | 5.56° C | 65% | 1014.2 hPa | 0 mm | - | - | - |
| 1778143929 | 5.56° C | 65% | 1014.2 hPa | 0 mm | - | - | - |
| 1778142728 | 5.56° C | 64% | 1014.3 hPa | 0 mm | - | - | - |
| 1778142128 | 5.56° C | 63% | 1014.1 hPa | 0 mm | - | - | - |
| 1778141529 | 5.56° C | 61% | 1014.4 hPa | 0 mm | - | - | - |
| 1778140928 | 5.56° C | 62% | 1014.4 hPa | 0 mm | - | - | - |
| 1778140328 | 5.56° C | 64% | 1014.3 hPa | 0 mm | - | - | - |
| 1778139729 | 5.56° C | 62% | 1014.2 hPa | 0 mm | - | - | - |
| 1778139128 | 5.56° C | 62% | 1014.2 hPa | 0 mm | - | - | - |
| 1778138528 | 6.11° C | 62% | 1014.3 hPa | 0 mm | - | - | - |
| 1778137928 | 6.11° C | 62% | 1014.4 hPa | 0 mm | - | - | - |
| 1778137329 | 6.11° C | 65% | 1014.3 hPa | 0 mm | - | - | - |
| 1778136728 | 6.11° C | 62% | 1014.1 hPa | 0 mm | - | - | - |
| 1778135529 | 6.11° C | 63% | 1014 hPa | 0 mm | - | - | - |
| 1778134928 | 6.11° C | 67% | 1014.2 hPa | 0 mm | - | - | - |
| 1778134328 | 6.11° C | 65% | 1014.2 hPa | 0 mm | - | - | - |
| 1778133729 | 6.11° C | 66% | 1014.5 hPa | 0 mm | - | - | - |
* Rain latest hour (hover to see other rain measurements)
** Current wind speed in m/s (hover to see current wind gust speed)